CZ-3B DEB, 42464

Orbit data source: Space-Track

CZ-3B DEB, 42464 is space debris in HEO originally from a launch on Sat, 04 Sep 2010 UTC launched from the Xichang Space Center, China (XSC). Debris objects in space refer to the collection of defunct objects orbiting the Earth. Examples of debris include non-operational satellites, rocket bodies, and fragments generated from explosions, collisions, or faulty payload assembly.

Loading next visibility...
Identifier
42464, 2010-042AF
Orbit
HEO
Last TLE update
1 week ago
Origin
Manufacturer
CALT
Mission
Spacecraft
Bus & Motor
Unknown
Mass
Unknown
Launch date (UTC)
2010-09-04 (15 years ago)
Launch vehicle
Unknown
Launch site
Xichang Space Center, China (XSC)
Object type
Payload
Rocket body
Debris
Shape & HBR
Unknown
Radar Cross Section
Medium (>0.1 m² and <1 m²)

Expand to show TLE details & history

TLE from 1 week ago
0 CZ-3B DEB
1 42464U 10042AF  25174.61699385 -.00000258  00000-0  00000-0 0  9999
2 42464  25.4774 359.1516 7359238 254.3988  20.0863  1.82364632 75980
Epoch: 2025-06-23T14:48Z
TLE epoch observation values (Epoch: 2025-06-23T14:48:28.268Z)
Latitude
0.00002°
Longitude
-134.99704°
Altitude
9,727.397 km
Speed
5.951 km/s
True Right ascension
23h 56m 34s
True Declination
0° 00' 00"
Sunlit
Object was in daylight at epoch
Visualization orbit readout
Latitude
18.21988°
Longitude
-93.15565°
Altitude
28,749.955 km
Speed
2.934 km/s
Apparent Right ascension
03h 16m 59s
Apparent Declination
11° 27' 50"
Sunlit
Object is in daylight
Visualization observer readout
Local Sidereal Time
20:29:50
Azimuth
73.678° E
Elevation
-1.493°
Doppler factor
1
Orbital elements
Apogee altitude
42,753.505 km
Perigee altitude
1,095.98 km
Semi-major axis
28,302.88 km
Eccentricity
0.73592
Inclination
25.4774°
RAAN
359.1516°
Arg. of periapsis
254.3988°
True anomaly
Unknown
Mean anomaly
20.0863°
Eccentric anomaly
Unknown
Mean motion
0.45582 °/min
Orbital period
789.78 mins
BSTAR
0
Loading maneuver chart data...
Loading SW <> Apogee altitude chart data...
Loading historical data...
Loading historical data...
Loading historical data...
Loading historical data...
Loading historical data...
Loading historical data...
Loading historical data...

CZ-3B DEB Visibility forecast

Observer location: undefined°, undefined°

Span
Click to sort rows by Start time (UTC) header in descending order
Start Az.
Max El. time (UTC)
Max El. Az.
Max El.
End time (UTC)
End Az.
494 mins2025-07-01 10:31:38.765Z75.828° E2025-07-01 16:46:38.765Z103.515° ESE36.178°2025-07-01 18:45:38.765Z103.994° ESE
|